Time,TemperatureF,DewpointF,PressureIn,WindDirection,WindDirectionDegrees,WindSpeedMPH,WindSpeedGustMPH,Humidity,HourlyPrecipIn,Conditions,Clouds,dailyrainin,SoftwareType,DateUTC
2013-02-07 00:02:00,26.8,-2.0,30.09,North,357,0.0,0.0,28,0.00,CLR,,0.00,WeatherDisplay:10.37,2013-02-07 08:02:00,
2013-02-07 00:07:00,26.7,-2.1,30.09,North,357,0.0,0.0,28,0.00,CLR,,0.00,WeatherDisplay:10.37,2013-02-07 08:07:00,
2013-02-07 00:12:00,26.8,-2.8,30.09,North,357,0.0,0.0,27,0.00,CLR,,0.00,WeatherDisplay:10.37,2013-02-07 08:12:00,
2013-02-07 00:22:00,27.1,-3.3,30.09,North,357,0.0,0.0,26,0.00,CLR,,0.00,WeatherDisplay:10.37,2013-02-07 08:22:00,
2013-02-07 00:32:00,26.8,-2.0,30.09,North,357,0.0,0.0,28,0.00,CLR,,0.00,WeatherDisplay:10.37,2013-02-07 08:32:00,
2013-02-07 00:42:00,26.9,-3.5,30.09,North,358,0.0,0.0,26,0.00,CLR,,0.00,WeatherDisplay:10.37,2013-02-07 08:42:00,
2013-02-07 00:47:00,27.1,-3.3,30.09,North,359,0.0,0.0,26,0.00,CLR,,0.00,WeatherDisplay:10.37,2013-02-07 08:47:00,
2013-02-07 00:52:00,27.1,-3.3,30.09,North,358,0.0,0.0,26,0.00,CLR,,0.00,WeatherDisplay:10.37,2013-02-07 08:52:00,
2013-02-07 00:57:00,27.0,-3.4,30.09,North,357,0.0,0.0,26,0.00,CLR,,0.00,WeatherDisplay:10.37,2013-02-07 08:57:00,
2013-02-07 01:02:00,27.0,-1.9,30.09,North,357,0.0,0.0,28,0.00,CLR,,0.00,WeatherDisplay:10.37,2013-02-07 09:02:00,
2013-02-07 01:07:00,26.8,-2.0,30.09,North,357,0.0,0.0,28,0.00,CLR,,0.00,WeatherDisplay:10.37,2013-02-07 09:07:00,
2013-02-07 01:12:00,26.6,-1.4,30.09,North,357,0.0,0.0,29,0.00,CLR,,0.00,WeatherDisplay:10.37,2013-02-07 09:12:00,
2013-02-07 01:17:00,26.4,-1.6,30.09,North,357,0.0,0.0,29,0.00,CLR,,0.00,WeatherDisplay:10.37,2013-02-07 09:17:00,
2013-02-07 01:22:00,26.2,-1.8,30.09,North,357,0.0,0.0,29,0.00,CLR,,0.00,WeatherDisplay:10.37,2013-02-07 09:22:00,
2013-02-07 01:27:00,26.1,-1.9,30.09,North,357,0.0,0.0,29,0.00,CLR,,0.00,WeatherDisplay:10.37,2013-02-07 09:27:00,
2013-02-07 01:32:00,25.9,-4.4,30.09,North,357,0.0,0.0,26,0.00,CLR,,0.00,WeatherDisplay:10.37,2013-02-07 09:32:00,
2013-02-07 01:37:00,25.9,-4.4,30.09,North,357,0.0,0.0,26,0.00,CLR,,0.00,WeatherDisplay:10.37,2013-02-07 09:37:00,
2013-02-07 01:42:00,25.9,-4.4,30.09,North,357,0.0,0.0,26,0.00,CLR,,0.00,WeatherDisplay:10.37,2013-02-07 09:42:00,
2013-02-07 01:47:00,26.1,-4.2,30.09,North,357,0.0,0.0,26,0.00,CLR,,0.00,WeatherDisplay:10.37,2013-02-07 09:47:00,
2013-02-07 01:52:00,26.1,-4.2,30.09,North,357,0.0,0.0,26,0.00,CLR,,0.00,WeatherDisplay:10.37,2013-02-07 09:52:00,
2013-02-07 01:57:00,26.4,-3.9,30.09,North,357,0.0,0.0,26,0.00,CLR,,0.00,WeatherDisplay:10.37,2013-02-07 09:57:00,
2013-02-07 02:02:00,26.8,-3.6,30.09,North,357,0.0,0.0,26,0.00,CLR,,0.00,WeatherDisplay:10.37,2013-02-07 10:02:00,
2013-02-07 02:07:00,27.0,-3.4,30.09,North,357,0.0,0.0,26,0.00,CLR,,0.00,WeatherDisplay:10.37,2013-02-07 10:07:00,
2013-02-07 02:12:00,27.3,-3.1,30.09,North,357,0.0,0.0,26,0.00,CLR,,0.00,WeatherDisplay:10.37,2013-02-07 10:12:00,
2013-02-07 02:17:00,27.1,-3.3,30.09,North,357,0.0,0.0,26,0.00,CLR,,0.00,WeatherDisplay:10.37,2013-02-07 10:17:00,
2013-02-07 02:22:00,27.0,-3.4,30.09,North,357,0.0,0.0,26,0.00,CLR,,0.00,WeatherDisplay:10.37,2013-02-07 10:22:00,
2013-02-07 02:27:00,26.9,-3.5,30.09,North,357,0.0,0.0,26,0.00,CLR,,0.00,WeatherDisplay:10.37,2013-02-07 10:27:00,
2013-02-07 02:32:00,26.5,-3.9,30.09,North,357,0.0,0.0,26,0.00,CLR,,0.00,WeatherDisplay:10.37,2013-02-07 10:32:00,
2013-02-07 02:37:00,26.2,-4.1,30.09,North,357,0.0,0.0,26,0.00,CLR,,0.00,WeatherDisplay:10.37,2013-02-07 10:37:00,
2013-02-07 02:42:00,26.1,-4.2,30.09,North,357,0.0,0.0,26,0.00,CLR,,0.00,WeatherDisplay:10.37,2013-02-07 10:42:00,
2013-02-07 02:47:00,25.9,-4.4,30.09,North,357,0.0,0.0,26,0.00,CLR,,0.00,WeatherDisplay:10.37,2013-02-07 10:47:00,
2013-02-07 02:52:00,25.7,-4.5,30.09,North,357,0.0,0.0,26,0.00,CLR,,0.00,WeatherDisplay:10.37,2013-02-07 10:52:00,
2013-02-07 02:57:00,25.7,-4.5,30.09,North,357,0.0,0.0,26,0.00,CLR,,0.00,WeatherDisplay:10.37,2013-02-07 10:57:00,
2013-02-07 03:02:00,25.7,-4.5,30.09,North,357,0.0,0.0,26,0.00,CLR,,0.00,WeatherDisplay:10.37,2013-02-07 11:02:00,
2013-02-07 03:07:00,25.5,-4.7,30.09,North,357,0.0,0.0,26,0.00,CLR,,0.00,WeatherDisplay:10.37,2013-02-07 11:07:00,
2013-02-07 03:12:00,25.7,-4.5,30.09,North,357,0.0,0.0,26,0.00,CLR,,0.00,WeatherDisplay:10.37,2013-02-07 11:12:00,
2013-02-07 03:17:00,26.0,-4.2,30.09,North,357,0.0,0.0,26,0.00,CLR,,0.00,WeatherDisplay:10.37,2013-02-07 11:17:00,
2013-02-07 03:22:00,26.1,-4.2,30.06,North,357,0.0,0.0,26,0.00,CLR,,0.00,WeatherDisplay:10.37,2013-02-07 11:22:00,
2013-02-07 03:27:00,26.4,-3.9,30.06,North,357,0.0,0.0,26,0.00,CLR,,0.00,WeatherDisplay:10.37,2013-02-07 11:27:00,
2013-02-07 03:37:00,26.2,-4.1,30.06,North,357,0.0,0.0,26,0.00,CLR,,0.00,WeatherDisplay:10.37,2013-02-07 11:37:00,
2013-02-07 03:42:00,26.1,-4.2,30.06,North,357,0.0,0.0,26,0.00,CLR,,0.00,WeatherDisplay:10.37,2013-02-07 11:42:00,
2013-02-07 03:47:00,26.1,-4.2,30.06,North,357,0.0,0.0,26,0.00,CLR,,0.00,WeatherDisplay:10.37,2013-02-07 11:47:00,
2013-02-07 03:52:00,26.1,-4.2,30.06,North,357,0.0,0.0,26,0.00,CLR,,0.00,WeatherDisplay:10.37,2013-02-07 11:52:00,
2013-02-07 03:57:00,26.1,-4.2,30.06,North,357,0.0,0.0,26,0.00,CLR,,0.00,WeatherDisplay:10.37,2013-02-07 11:57:00,
2013-02-07 04:02:00,26.1,-4.2,30.06,North,357,0.0,0.0,26,0.00,CLR,,0.00,WeatherDisplay:10.37,2013-02-07 12:02:00,
2013-02-07 04:07:00,25.9,-4.3,30.06,North,357,0.0,0.0,26,0.00,CLR,,0.00,WeatherDisplay:10.37,2013-02-07 12:07:00,
2013-02-07 04:12:00,25.9,-4.4,30.06,North,357,0.0,0.0,26,0.00,CLR,,0.00,WeatherDisplay:10.37,2013-02-07 12:12:00,
2013-02-07 04:17:00,26.1,-4.2,30.06,North,357,0.0,0.0,26,0.00,CLR,,0.00,WeatherDisplay:10.37,2013-02-07 12:17:00,
2013-02-07 04:22:00,26.2,-4.1,30.06,North,357,0.0,0.0,26,0.00,CLR,,0.00,WeatherDisplay:10.37,2013-02-07 12:22:00,
2013-02-07 04:27:00,26.4,-3.9,30.06,North,357,0.0,0.0,26,0.00,CLR,,0.00,WeatherDisplay:10.37,2013-02-07 12:27:00,
2013-02-07 04:32:00,26.4,-3.9,30.06,North,357,0.0,0.0,26,0.00,CLR,,0.00,WeatherDisplay:10.37,2013-02-07 12:32:00,
2013-02-07 04:37:00,26.8,-3.6,30.06,North,357,0.0,0.0,26,0.00,CLR,,0.00,WeatherDisplay:10.37,2013-02-07 12:37:00,
2013-02-07 04:42:00,26.5,-3.9,30.06,North,357,0.0,0.0,26,0.00,CLR,,0.00,WeatherDisplay:10.37,2013-02-07 12:42:00,
2013-02-07 04:47:00,26.2,-4.1,30.06,North,357,0.0,0.0,26,0.00,CLR,,0.00,WeatherDisplay:10.37,2013-02-07 12:47:00,
2013-02-07 04:52:00,26.0,-4.2,30.06,North,357,0.0,0.0,26,0.00,CLR,,0.00,WeatherDisplay:10.37,2013-02-07 12:52:00,
2013-02-07 04:57:00,25.5,-4.7,30.06,North,357,0.0,0.0,26,0.00,CLR,,0.00,WeatherDisplay:10.37,2013-02-07 12:57:00,
2013-02-07 05:02:00,25.3,-4.8,30.06,North,357,0.0,0.0,26,0.00,CLR,,0.00,WeatherDisplay:10.37,2013-02-07 13:02:00,
2013-02-07 05:07:00,25.2,-5.0,30.06,North,357,0.0,0.0,26,0.00,CLR,,0.00,WeatherDisplay:10.37,2013-02-07 13:07:00,
2013-02-07 05:12:00,25.2,-5.0,30.06,North,357,0.0,0.0,26,0.00,CLR,,0.00,WeatherDisplay:10.37,2013-02-07 13:12:00,
2013-02-07 05:17:00,25.3,-4.8,30.06,North,357,0.0,0.0,26,0.00,CLR,,0.00,WeatherDisplay:10.37,2013-02-07 13:17:00,
2013-02-07 05:22:00,25.8,-4.4,30.06,North,357,0.0,0.0,26,0.00,CLR,,0.00,WeatherDisplay:10.37,2013-02-07 13:22:00,
2013-02-07 05:27:00,26.1,-4.2,30.06,North,357,0.0,0.0,26,0.00,CLR,,0.00,WeatherDisplay:10.37,2013-02-07 13:27:00,
2013-02-07 05:32:00,26.1,-4.2,30.06,North,357,0.0,0.0,26,0.00,CLR,,0.00,WeatherDisplay:10.37,2013-02-07 13:32:00,
2013-02-07 05:37:00,26.2,-4.1,30.06,North,357,0.0,0.0,26,0.00,CLR,,0.00,WeatherDisplay:10.37,2013-02-07 13:37:00,
2013-02-07 05:42:00,26.2,-4.1,30.06,North,357,0.0,0.0,26,0.00,CLR,,0.00,WeatherDisplay:10.37,2013-02-07 13:42:00,
2013-02-07 05:47:00,26.2,-4.1,30.06,North,357,0.0,0.0,26,0.00,CLR,,0.00,WeatherDisplay:10.37,2013-02-07 13:47:00,
2013-02-07 05:52:00,26.2,-4.1,30.06,North,357,0.0,0.0,26,0.00,CLR,,0.00,WeatherDisplay:10.37,2013-02-07 13:52:00,
2013-02-07 05:57:00,26.1,-4.1,30.06,North,357,0.0,0.0,26,0.00,CLR,,0.00,WeatherDisplay:10.37,2013-02-07 13:57:00,
2013-02-07 06:02:00,26.1,-4.2,30.06,North,357,0.0,0.0,26,0.00,CLR,,0.00,WeatherDisplay:10.37,2013-02-07 14:02:00,
2013-02-07 06:07:00,26.1,-4.2,30.06,North,357,0.0,0.0,26,0.00,CLR,,0.00,WeatherDisplay:10.37,2013-02-07 14:07:00,
2013-02-07 06:12:00,26.2,-4.1,30.06,North,357,0.0,0.0,26,0.00,CLR,,0.00,WeatherDisplay:10.37,2013-02-07 14:12:00,
2013-02-07 06:17:00,26.2,-4.1,30.06,North,357,0.0,0.0,26,0.00,CLR,,0.00,WeatherDisplay:10.37,2013-02-07 14:17:00,
2013-02-07 06:22:00,26.1,-4.2,30.06,North,357,0.0,0.0,26,0.00,CLR,,0.00,WeatherDisplay:10.37,2013-02-07 14:22:00,
2013-02-07 06:27:00,26.1,-4.2,30.06,North,357,0.0,0.0,26,0.00,CLR,,0.00,WeatherDisplay:10.37,2013-02-07 14:27:00,
2013-02-07 06:32:00,25.9,-4.4,30.06,North,357,0.0,0.0,26,0.00,CLR,,0.00,WeatherDisplay:10.37,2013-02-07 14:32:00,
2013-02-07 06:37:00,25.9,-4.4,30.06,North,357,0.0,0.0,26,0.00,CLR,,0.00,WeatherDisplay:10.37,2013-02-07 14:37:00,
2013-02-07 06:42:00,25.9,-4.4,30.06,North,357,0.0,0.0,26,0.00,CLR,,0.00,WeatherDisplay:10.37,2013-02-07 14:42:00,
2013-02-07 06:47:00,25.9,-4.4,30.06,North,357,0.0,0.0,26,0.00,CLR,,0.00,WeatherDisplay:10.37,2013-02-07 14:47:00,
2013-02-07 06:52:00,26.1,-4.2,30.06,North,357,0.0,0.0,26,0.00,CLR,,0.00,WeatherDisplay:10.37,2013-02-07 14:52:00,
2013-02-07 06:57:00,26.1,-4.2,30.06,North,357,0.0,0.0,26,0.00,CLR,,0.00,WeatherDisplay:10.37,2013-02-07 14:57:00,
2013-02-07 07:02:00,26.1,-4.2,30.06,North,357,0.0,0.0,26,0.00,CLR,,0.00,WeatherDisplay:10.37,2013-02-07 15:02:00,
2013-02-07 07:07:00,26.1,-4.2,30.06,North,357,0.0,0.0,26,0.00,CLR,,0.00,WeatherDisplay:10.37,2013-02-07 15:07:00,
2013-02-07 07:12:00,26.4,-3.9,30.06,North,357,0.0,0.0,26,0.00,CLR,,0.00,WeatherDisplay:10.37,2013-02-07 15:12:00,
2013-02-07 07:17:00,26.9,-3.5,30.06,North,357,0.0,0.0,26,0.00,CLR,,0.00,WeatherDisplay:10.37,2013-02-07 15:17:00,
2013-02-07 07:22:00,27.4,-3.1,30.06,North,357,0.0,0.0,26,0.00,CLR,,0.00,WeatherDisplay:10.37,2013-02-07 15:22:00,
2013-02-07 07:27:00,28.0,-1.0,30.06,North,357,0.0,0.0,28,0.00,CLR,,0.00,WeatherDisplay:10.37,2013-02-07 15:27:00,
2013-02-07 07:32:00,28.5,-0.5,30.06,North,357,0.0,0.0,28,0.00,CLR,,0.00,WeatherDisplay:10.37,2013-02-07 15:32:00,
2013-02-07 07:37:00,28.9,-0.1,30.06,North,357,0.0,0.0,28,0.00,CLR,,0.00,WeatherDisplay:10.37,2013-02-07 15:37:00,
2013-02-07 07:42:00,29.5,0.3,30.06,North,357,0.0,0.0,28,0.00,CLR,,0.00,WeatherDisplay:10.37,2013-02-07 15:42:00,
2013-02-07 07:47:00,30.2,1.0,30.06,North,357,0.0,0.0,28,0.00,CLR,,0.00,WeatherDisplay:10.37,2013-02-07 15:47:00,
2013-02-07 07:52:00,31.1,1.8,30.09,North,357,0.0,0.0,28,0.00,CLR,,0.00,WeatherDisplay:10.37,2013-02-07 15:52:00,
2013-02-07 07:57:00,32.2,4.2,30.09,North,357,0.0,0.0,30,0.00,CLR,,0.00,WeatherDisplay:10.37,2013-02-07 15:57:00,
2013-02-07 08:07:00,34.1,5.8,30.09,North,357,0.0,0.0,30,0.00,CLR,,0.00,WeatherDisplay:10.37,2013-02-07 16:07:00,
2013-02-07 08:12:00,34.7,6.4,30.09,North,357,0.0,0.0,30,0.00,CLR,,0.00,WeatherDisplay:10.37,2013-02-07 16:12:00,
2013-02-07 08:17:00,35.2,6.8,30.09,North,357,0.0,0.0,30,0.00,CLR,,0.00,WeatherDisplay:10.37,2013-02-07 16:17:00,
2013-02-07 08:22:00,35.8,7.3,30.09,North,357,0.0,0.0,30,0.00,CLR,,0.00,WeatherDisplay:10.37,2013-02-07 16:22:00,
2013-02-07 08:27:00,36.4,7.1,30.09,WNW,286,0.0,4.0,29,0.00,CLR,,0.00,WeatherDisplay:10.37,2013-02-07 16:27:00,
2013-02-07 08:32:00,37.2,7.8,30.09,SW,235,0.0,4.0,29,0.00,CLR,,0.00,WeatherDisplay:10.37,2013-02-07 16:32:00,
2013-02-07 08:42:00,38.7,9.1,30.09,WSW,241,0.0,5.0,29,0.00,CLR,,0.00,WeatherDisplay:10.37,2013-02-07 16:42:00,
2013-02-07 08:47:00,39.4,8.9,30.09,WSW,241,2.0,4.0,28,0.00,CLR,,0.00,WeatherDisplay:10.37,2013-02-07 16:47:00,
2013-02-07 08:52:00,39.9,9.4,30.09,West,259,0.0,4.0,28,0.00,CLR,,0.00,WeatherDisplay:10.37,2013-02-07 16:52:00,
2013-02-07 08:57:00,40.5,9.9,30.09,WSW,248,1.0,6.0,28,0.00,CLR,,0.00,WeatherDisplay:10.37,2013-02-07 16:57:00,
2013-02-07 09:02:00,41.1,10.4,30.09,SW,224,0.0,3.0,28,0.00,CLR,,0.00,WeatherDisplay:10.37,2013-02-07 17:02:00,
2013-02-07 09:07:00,41.8,11.0,30.09,SW,229,0.0,2.0,28,0.00,CLR,,0.00,WeatherDisplay:10.37,2013-02-07 17:07:00,
2013-02-07 09:12:00,42.7,11.8,30.09,SW,233,0.0,0.0,28,0.00,CLR,,0.00,WeatherDisplay:10.37,2013-02-07 17:12:00,
2013-02-07 09:17:00,43.6,12.6,30.09,SW,215,0.0,0.0,28,0.00,CLR,,0.00,WeatherDisplay:10.37,2013-02-07 17:17:00,
2013-02-07 09:22:00,45.3,13.2,30.09,SW,215,3.0,4.0,27,0.00,CLR,,0.00,WeatherDisplay:10.37,2013-02-07 17:22:00,
2013-02-07 09:27:00,46.6,11.7,30.09,SW,216,0.0,5.0,24,0.00,CLR,,0.00,WeatherDisplay:10.37,2013-02-07 17:27:00,
2013-02-07 09:32:00,47.5,12.4,30.09,SW,232,0.0,6.0,24,0.00,CLR,,0.00,WeatherDisplay:10.37,2013-02-07 17:32:00,
2013-02-07 09:42:00,49.3,13.9,30.09,SSW,210,2.0,6.0,24,0.00,CLR,,0.00,WeatherDisplay:10.37,2013-02-07 17:42:00,
2013-02-07 09:52:00,51.2,12.5,30.09,South,184,2.0,6.0,21,0.00,CLR,,0.00,WeatherDisplay:10.37,2013-02-07 17:52:00,
2013-02-07 09:57:00,51.6,12.9,30.09,South,185,2.0,4.0,21,0.00,CLR,,0.00,WeatherDisplay:10.37,2013-02-07 17:57:00,
2013-02-07 10:02:00,52.0,13.2,30.09,South,190,3.0,5.0,21,0.00,CLR,,0.00,WeatherDisplay:10.37,2013-02-07 18:02:00,
2013-02-07 10:07:00,52.1,13.3,30.09,SSW,192,3.0,5.0,21,0.00,CLR,,0.00,WeatherDisplay:10.37,2013-02-07 18:07:00,
2013-02-07 10:12:00,52.2,13.3,30.09,South,187,3.0,6.0,21,0.00,CLR,,0.00,WeatherDisplay:10.37,2013-02-07 18:12:00,
2013-02-07 10:17:00,52.2,13.3,30.09,SSW,193,3.0,6.0,21,0.00,CLR,,0.00,WeatherDisplay:10.37,2013-02-07 18:17:00,
2013-02-07 10:22:00,52.0,13.2,30.06,SSW,209,3.0,8.0,21,0.00,CLR,,0.00,WeatherDisplay:10.37,2013-02-07 18:22:00,
2013-02-07 10:27:00,52.0,13.2,30.06,SSW,209,5.0,8.0,21,0.00,CLR,,0.00,WeatherDisplay:10.37,2013-02-07 18:27:00,
2013-02-07 10:32:00,52.2,9.9,30.06,SSW,199,3.0,6.0,18,0.00,CLR,,0.00,WeatherDisplay:10.37,2013-02-07 18:32:00,
2013-02-07 10:37:00,52.3,10.0,30.06,SSW,197,3.0,8.0,18,0.00,CLR,,0.00,WeatherDisplay:10.37,2013-02-07 18:37:00,
2013-02-07 10:42:00,52.5,10.2,30.06,SW,215,3.0,8.0,18,0.00,CLR,,0.00,WeatherDisplay:10.37,2013-02-07 18:42:00,
2013-02-07 10:52:00,52.5,10.2,30.06,SSW,206,3.0,8.0,18,0.00,CLR,,0.00,WeatherDisplay:10.37,2013-02-07 18:52:00,
2013-02-07 10:57:00,52.7,10.3,30.06,SSW,207,5.0,12.0,18,0.00,CLR,,0.00,WeatherDisplay:10.37,2013-02-07 18:57:00,
2013-02-07 11:02:00,52.5,10.2,30.06,SW,214,8.0,12.0,18,0.00,CLR,,0.00,WeatherDisplay:10.37,2013-02-07 19:02:00,
2013-02-07 11:07:00,52.2,9.9,30.06,SW,221,5.0,12.0,18,0.00,CLR,,0.00,WeatherDisplay:10.37,2013-02-07 19:07:00,
2013-02-07 11:12:00,52.2,9.9,30.06,SW,233,6.0,10.0,18,0.00,CLR,,0.00,WeatherDisplay:10.37,2013-02-07 19:12:00,
2013-02-07 11:17:00,52.2,9.9,30.06,WSW,240,7.0,10.0,18,0.00,CLR,,0.00,WeatherDisplay:10.37,2013-02-07 19:17:00,
2013-02-07 11:22:00,52.2,9.9,30.06,SW,229,3.0,8.0,18,0.00,CLR,,0.00,WeatherDisplay:10.37,2013-02-07 19:22:00,
2013-02-07 11:27:00,52.2,9.9,30.06,SW,214,6.0,11.0,18,0.00,CLR,,0.00,WeatherDisplay:10.37,2013-02-07 19:27:00,
2013-02-07 11:32:00,51.8,9.6,30.06,SW,216,7.0,12.0,18,0.00,CLR,,0.00,WeatherDisplay:10.37,2013-02-07 19:32:00,
2013-02-07 11:37:00,51.3,10.4,30.06,SW,214,6.0,8.0,19,0.00,CLR,,0.00,WeatherDisplay:10.37,2013-02-07 19:37:00,
2013-02-07 11:42:00,51.1,10.2,30.06,SSW,204,3.0,10.0,19,0.00,CLR,,0.00,WeatherDisplay:10.37,2013-02-07 19:42:00,
2013-02-07 11:47:00,51.1,10.2,30.06,SSW,210,5.0,8.0,19,0.00,CLR,,0.00,WeatherDisplay:10.37,2013-02-07 19:47:00,
2013-02-07 11:52:00,50.7,9.9,30.06,SW,225,5.0,11.0,19,0.00,CLR,,0.00,WeatherDisplay:10.37,2013-02-07 19:52:00,
2013-02-07 11:57:00,50.5,9.7,30.06,SW,229,6.0,10.0,19,0.00,CLR,,0.00,WeatherDisplay:10.37,2013-02-07 19:57:00,
2013-02-07 12:02:00,50.5,12.0,30.06,WSW,246,5.0,8.0,21,0.00,CLR,,0.00,WeatherDisplay:10.37,2013-02-07 20:02:00,
2013-02-07 12:07:00,50.9,12.3,30.06,WSW,238,6.0,8.0,21,0.00,CLR,,0.00,WeatherDisplay:10.37,2013-02-07 20:07:00,
2013-02-07 12:12:00,50.7,12.1,30.06,SSW,213,2.0,6.0,21,0.00,CLR,,0.00,WeatherDisplay:10.37,2013-02-07 20:12:00,
2013-02-07 12:17:00,50.9,12.3,30.06,SSW,213,3.0,6.0,21,0.00,CLR,,0.00,WeatherDisplay:10.37,2013-02-07 20:17:00,
2013-02-07 12:22:00,50.6,12.0,30.03,SW,217,7.0,10.0,21,0.00,CLR,,0.00,WeatherDisplay:10.37,2013-02-07 20:22:00,
2013-02-07 12:27:00,50.3,11.8,30.03,SW,222,5.0,8.0,21,0.00,CLR,,0.00,WeatherDisplay:10.37,2013-02-07 20:27:00,
2013-02-07 12:32:00,50.4,11.8,30.03,SW,235,5.0,11.0,21,0.00,CLR,,0.00,WeatherDisplay:10.37,2013-02-07 20:32:00,
2013-02-07 12:37:00,50.2,11.7,30.03,SW,227,5.0,8.0,21,0.00,CLR,,0.00,WeatherDisplay:10.37,2013-02-07 20:37:00,
2013-02-07 12:42:00,50.2,11.7,30.03,SW,219,7.0,13.0,21,0.00,CLR,,0.00,WeatherDisplay:10.37,2013-02-07 20:42:00,
2013-02-07 12:47:00,50.0,11.5,30.03,SW,222,5.0,10.0,21,0.00,CLR,,0.00,WeatherDisplay:10.37,2013-02-07 20:47:00,
2013-02-07 12:52:00,49.6,11.2,30.03,SW,221,3.0,8.0,21,0.00,CLR,,0.00,WeatherDisplay:10.37,2013-02-07 20:52:00,
2013-02-07 13:02:00,49.6,11.2,30.03,SW,221,3.0,8.0,21,0.00,CLR,,0.00,WeatherDisplay:10.37,2013-02-07 21:02:00,
2013-02-07 13:07:00,49.5,14.1,30.03,SW,215,3.0,10.0,24,0.00,CLR,,0.00,WeatherDisplay:10.37,2013-02-07 21:07:00,
2013-02-07 13:12:00,49.3,14.0,30.03,SW,214,7.0,11.0,24,0.00,CLR,,0.00,WeatherDisplay:10.37,2013-02-07 21:12:00,
2013-02-07 13:17:00,49.3,14.0,30.03,SSW,213,5.0,10.0,24,0.00,CLR,,0.00,WeatherDisplay:10.37,2013-02-07 21:17:00,
2013-02-07 13:22:00,49.3,14.0,30.03,SSW,210,5.0,8.0,24,0.00,CLR,,0.00,WeatherDisplay:10.37,2013-02-07 21:22:00,
2013-02-07 13:27:00,49.2,13.9,30.03,SW,220,3.0,10.0,24,0.00,CLR,,0.00,WeatherDisplay:10.37,2013-02-07 21:27:00,
2013-02-07 13:32:00,49.5,14.1,30.03,SW,229,6.0,10.0,24,0.00,CLR,,0.00,WeatherDisplay:10.37,2013-02-07 21:32:00,
2013-02-07 13:37:00,49.6,14.3,30.03,SW,225,5.0,11.0,24,0.00,CLR,,0.00,WeatherDisplay:10.37,2013-02-07 21:37:00,
2013-02-07 13:42:00,49.6,14.3,30.03,SW,224,6.0,10.0,24,0.00,CLR,,0.00,WeatherDisplay:10.37,2013-02-07 21:42:00,
2013-02-07 13:47:00,49.6,16.1,30.03,SW,226,6.0,9.0,26,0.00,CLR,,0.00,WeatherDisplay:10.37,2013-02-07 21:47:00,
2013-02-07 13:52:00,49.7,17.1,30.00,SW,219,5.0,9.0,27,0.00,CLR,,0.00,WeatherDisplay:10.37,2013-02-07 21:52:00,
2013-02-07 13:57:00,49.8,16.3,30.00,SW,234,5.0,12.0,26,0.00,CLR,,0.00,WeatherDisplay:10.37,2013-02-07 21:57:00,
2013-02-07 14:02:00,49.8,16.2,30.00,SW,224,5.0,13.0,26,0.00,CLR,,0.00,WeatherDisplay:10.37,2013-02-07 22:02:00,
2013-02-07 14:07:00,49.5,14.1,30.00,SSW,213,7.0,8.0,24,0.00,CLR,,0.00,WeatherDisplay:10.37,2013-02-07 22:07:00,
2013-02-07 14:12:00,49.6,16.1,30.00,SW,221,7.0,8.0,26,0.00,CLR,,0.00,WeatherDisplay:10.37,2013-02-07 22:12:00,
2013-02-07 14:17:00,49.3,15.8,30.00,SW,219,6.0,11.0,26,0.00,CLR,,0.00,WeatherDisplay:10.37,2013-02-07 22:17:00,
2013-02-07 14:22:00,49.1,15.6,30.00,SW,215,5.0,10.0,26,0.00,CLR,,0.00,WeatherDisplay:10.37,2013-02-07 22:22:00,
2013-02-07 14:27:00,48.8,15.4,30.00,SSW,208,6.0,17.0,26,0.00,CLR,,0.00,WeatherDisplay:10.37,2013-02-07 22:27:00,
2013-02-07 14:32:00,48.7,15.3,30.00,SW,224,8.0,17.0,26,0.00,CLR,,0.00,WeatherDisplay:10.37,2013-02-07 22:32:00,
2013-02-07 14:37:00,48.7,13.5,30.00,SW,231,5.0,9.0,24,0.00,CLR,,0.00,WeatherDisplay:10.37,2013-02-07 22:37:00,
2013-02-07 14:42:00,48.6,13.3,30.00,SW,229,6.0,9.0,24,0.00,CLR,,0.00,WeatherDisplay:10.37,2013-02-07 22:42:00,
2013-02-07 14:47:00,48.4,13.2,30.00,SW,226,5.0,13.0,24,0.00,CLR,,0.00,WeatherDisplay:10.37,2013-02-07 22:47:00,
2013-02-07 14:52:00,48.4,13.2,30.00,SW,229,3.0,9.0,24,0.00,CLR,,0.00,WeatherDisplay:10.37,2013-02-07 22:52:00,
2013-02-07 14:57:00,48.7,14.4,30.00,SW,220,8.0,13.0,25,0.00,CLR,,0.00,WeatherDisplay:10.37,2013-02-07 22:57:00,
2013-02-07 15:02:00,48.7,13.5,30.00,SSW,213,5.0,9.0,24,0.00,CLR,,0.00,WeatherDisplay:10.37,2013-02-07 23:02:00,
2013-02-07 15:12:00,48.4,15.0,30.00,SW,235,6.0,9.0,26,0.00,CLR,,0.00,WeatherDisplay:10.37,2013-02-07 23:12:00,
2013-02-07 15:22:00,47.8,15.4,30.00,SW,229,6.0,9.0,27,0.00,CLR,,0.00,WeatherDisplay:10.37,2013-02-07 23:22:00,
2013-02-07 15:32:00,47.3,15.8,30.00,SW,236,5.0,10.0,28,0.00,CLR,,0.00,WeatherDisplay:10.37,2013-02-07 23:32:00,
2013-02-07 15:37:00,47.3,16.6,29.97,WSW,242,3.0,12.0,29,0.00,CLR,,0.00,WeatherDisplay:10.37,2013-02-07 23:37:00,
2013-02-07 15:42:00,47.0,17.1,29.97,WSW,257,5.0,13.0,30,0.00,CLR,,0.00,WeatherDisplay:10.37,2013-02-07 23:42:00,
2013-02-07 15:47:00,46.7,17.6,29.97,WSW,238,3.0,10.0,31,0.00,CLR,,0.00,WeatherDisplay:10.37,2013-02-07 23:47:00,
2013-02-07 15:52:00,46.6,17.5,29.97,SW,218,5.0,6.0,31,0.00,CLR,,0.00,WeatherDisplay:10.37,2013-02-07 23:52:00,
2013-02-07 16:02:00,46.6,17.5,29.97,WSW,247,8.0,13.0,31,0.00,CLR,,0.00,WeatherDisplay:10.37,2013-02-08 00:02:00,
2013-02-07 16:07:00,46.2,17.9,29.97,WSW,240,5.0,12.0,32,0.00,CLR,,0.00,WeatherDisplay:10.37,2013-02-08 00:07:00,
2013-02-07 16:12:00,46.2,17.2,29.97,WSW,243,6.0,15.0,31,0.00,CLR,,0.00,WeatherDisplay:10.37,2013-02-08 00:12:00,
2013-02-07 16:17:00,45.8,16.1,29.97,WSW,242,7.0,12.0,30,0.00,CLR,,0.00,WeatherDisplay:10.37,2013-02-08 00:17:00,
2013-02-07 16:22:00,45.2,15.5,29.97,SW,229,9.0,12.0,30,0.00,CLR,,0.00,WeatherDisplay:10.37,2013-02-08 00:22:00,
2013-02-07 16:27:00,44.6,15.0,29.97,SW,226,7.0,13.0,30,0.00,CLR,,0.00,WeatherDisplay:10.37,2013-02-08 00:27:00,
2013-02-07 16:32:00,43.7,14.3,29.97,SW,236,6.0,12.0,30,0.00,CLR,,0.00,WeatherDisplay:10.37,2013-02-08 00:32:00,
2013-02-07 16:37:00,43.2,13.8,29.97,WSW,247,8.0,15.0,30,0.00,CLR,,0.00,WeatherDisplay:10.37,2013-02-08 00:37:00,
2013-02-07 16:42:00,42.8,13.5,29.97,WSW,253,6.0,11.0,30,0.00,CLR,,0.00,WeatherDisplay:10.37,2013-02-08 00:42:00,
2013-02-07 16:52:00,42.0,12.7,29.97,WSW,250,8.0,15.0,30,0.00,CLR,,0.00,WeatherDisplay:10.37,2013-02-08 00:52:00,
2013-02-07 16:57:00,41.2,12.0,29.97,WSW,251,6.0,15.0,30,0.00,CLR,,0.00,WeatherDisplay:10.37,2013-02-08 00:57:00,
2013-02-07 17:02:00,40.5,12.2,29.97,WSW,254,2.0,10.0,31,0.00,CLR,,0.00,WeatherDisplay:10.37,2013-02-08 01:02:00,
2013-02-07 17:07:00,39.9,12.4,29.94,WSW,249,7.0,12.0,32,0.00,CLR,,0.00,WeatherDisplay:10.37,2013-02-08 01:07:00,
2013-02-07 17:12:00,39.2,13.2,29.94,WSW,256,6.0,12.0,34,0.00,CLR,,0.00,WeatherDisplay:10.37,2013-02-08 01:12:00,
2013-02-07 17:17:00,38.8,14.1,29.94,West,261,9.0,13.0,36,0.00,CLR,,0.00,WeatherDisplay:10.37,2013-02-08 01:17:00,
2013-02-07 17:22:00,38.3,16.6,29.94,WSW,257,8.0,13.0,41,0.00,CLR,,0.00,WeatherDisplay:10.37,2013-02-08 01:22:00,
2013-02-07 17:27:00,37.7,17.2,29.94,West,259,6.0,13.0,43,0.00,CLR,,0.00,WeatherDisplay:10.37,2013-02-08 01:27:00,
2013-02-07 17:32:00,37.3,20.3,29.94,West,260,8.0,15.0,50,0.00,CLR,,0.00,WeatherDisplay:10.37,2013-02-08 01:32:00,
2013-02-07 17:37:00,37.0,21.5,29.94,WSW,254,5.0,13.0,53,0.00,CLR,,0.00,WeatherDisplay:10.37,2013-02-08 01:37:00,
2013-02-07 17:42:00,36.7,22.9,29.94,WSW,252,6.0,14.0,57,0.00,CLR,,0.00,WeatherDisplay:10.37,2013-02-08 01:42:00,
2013-02-07 17:52:00,35.9,24.2,29.94,West,264,8.0,13.0,62,0.00,CLR,,0.00,WeatherDisplay:10.37,2013-02-08 01:52:00,
2013-02-07 17:57:00,35.6,24.6,29.94,West,270,6.0,12.0,64,0.00,CLR,,0.00,WeatherDisplay:10.37,2013-02-08 01:57:00,
2013-02-07 18:02:00,35.4,25.2,29.94,WSW,253,7.0,12.0,66,0.00,CLR,,0.00,WeatherDisplay:10.37,2013-02-08 02:02:00,
2013-02-07 18:07:00,35.2,25.4,29.94,WSW,249,8.0,15.0,67,0.00,CLR,,0.00,WeatherDisplay:10.37,2013-02-08 02:07:00,
2013-02-07 18:12:00,35.1,25.6,29.94,WSW,252,6.0,15.0,68,0.00,CLR,,0.00,WeatherDisplay:10.37,2013-02-08 02:12:00,
2013-02-07 18:17:00,34.9,25.7,29.94,West,263,3.0,9.0,69,0.00,CLR,,0.00,WeatherDisplay:10.37,2013-02-08 02:17:00,
2013-02-07 18:22:00,34.7,25.6,29.94,West,272,6.0,9.0,69,0.00,CLR,,0.00,WeatherDisplay:10.37,2013-02-08 02:22:00,
2013-02-07 18:32:00,34.5,25.0,29.94,WSW,242,5.0,8.0,68,0.00,CLR,,0.00,WeatherDisplay:10.37,2013-02-08 02:32:00,
2013-02-07 18:37:00,34.3,24.9,29.94,WSW,245,3.0,6.0,68,0.00,CLR,,0.00,WeatherDisplay:10.37,2013-02-08 02:37:00,
2013-02-07 18:42:00,34.2,25.0,29.94,SW,230,3.0,8.0,69,0.00,CLR,,0.00,WeatherDisplay:10.37,2013-02-08 02:42:00,
2013-02-07 18:47:00,34.0,24.9,29.94,SW,233,5.0,8.0,69,0.00,CLR,,0.00,WeatherDisplay:10.37,2013-02-08 02:47:00,
2013-02-07 18:52:00,33.8,25.0,29.94,West,267,3.0,6.0,70,0.00,CLR,,0.00,WeatherDisplay:10.37,2013-02-08 02:52:00,
2013-02-07 18:57:00,33.6,24.9,29.94,West,264,1.0,6.0,70,0.00,CLR,,0.00,WeatherDisplay:10.37,2013-02-08 02:57:00,
2013-02-07 19:02:00,33.6,25.2,29.94,WSW,249,3.0,8.0,71,0.00,CLR,,0.00,WeatherDisplay:10.37,2013-02-08 03:02:00,
2013-02-07 19:07:00,33.4,25.0,29.91,SW,234,5.0,9.0,71,0.00,CLR,,0.00,WeatherDisplay:10.37,2013-02-08 03:07:00,
2013-02-07 19:12:00,33.3,24.5,29.91,SW,236,3.0,6.0,70,0.00,CLR,,0.00,WeatherDisplay:10.37,2013-02-08 03:12:00,
2013-02-07 19:17:00,33.3,24.2,29.91,WSW,253,5.0,8.0,69,0.00,CLR,,0.00,WeatherDisplay:10.37,2013-02-08 03:17:00,
2013-02-07 19:22:00,33.1,23.7,29.91,WSW,254,3.0,8.0,68,0.00,CLR,,0.00,WeatherDisplay:10.37,2013-02-08 03:22:00,
2013-02-07 19:27:00,33.1,24.0,29.91,WSW,253,7.0,13.0,69,0.00,CLR,,0.00,WeatherDisplay:10.37,2013-02-08 03:27:00,
2013-02-07 19:32:00,32.7,24.0,29.91,WSW,252,5.0,9.0,70,0.00,CLR,,0.00,WeatherDisplay:10.37,2013-02-08 03:32:00,
2013-02-07 19:37:00,32.5,24.8,29.91,WSW,245,7.0,12.0,73,0.00,CLR,,0.00,WeatherDisplay:10.37,2013-02-08 03:37:00,
2013-02-07 19:42:00,32.5,25.5,29.91,WSW,250,6.0,11.0,75,0.00,CLR,,0.00,WeatherDisplay:10.37,2013-02-08 03:42:00,
2013-02-07 19:47:00,32.4,25.6,29.91,WSW,248,6.0,12.0,76,0.00,CLR,,0.00,WeatherDisplay:10.37,2013-02-08 03:47:00,
2013-02-07 19:52:00,32.2,25.8,29.91,WSW,238,8.0,12.0,77,0.00,CLR,,0.00,WeatherDisplay:10.37,2013-02-08 03:52:00,
2013-02-07 19:57:00,32.2,25.8,29.91,WSW,242,7.0,17.0,77,0.00,CLR,,0.00,WeatherDisplay:10.37,2013-02-08 03:57:00,
2013-02-07 20:02:00,32.0,25.9,29.91,WSW,237,6.0,12.0,78,0.00,CLR,,0.00,WeatherDisplay:10.37,2013-02-08 04:02:00,
2013-02-07 20:07:00,31.8,25.7,29.91,SW,236,5.0,8.0,78,0.00,CLR,,0.00,WeatherDisplay:10.37,2013-02-08 04:07:00,
2013-02-07 20:12:00,31.6,25.6,29.91,WSW,241,6.0,9.0,78,0.00,CLR,,0.00,WeatherDisplay:10.37,2013-02-08 04:12:00,
2013-02-07 20:17:00,31.5,25.1,29.91,SW,231,8.0,20.0,77,0.00,CLR,,0.00,WeatherDisplay:10.37,2013-02-08 04:17:00,
2013-02-07 20:27:00,31.1,24.7,29.91,WSW,242,7.0,9.0,77,0.00,CLR,,0.00,WeatherDisplay:10.37,2013-02-08 04:27:00,
2013-02-07 20:32:00,31.0,24.7,29.91,WSW,246,7.0,17.0,77,0.00,CLR,,0.00,WeatherDisplay:10.37,2013-02-08 04:32:00,
2013-02-07 20:37:00,30.8,24.1,29.91,WSW,250,6.0,17.0,76,0.00,CLR,,0.00,WeatherDisplay:10.37,2013-02-08 04:37:00,
2013-02-07 20:42:00,30.6,24.2,29.91,WSW,250,8.0,15.0,77,0.00,CLR,,0.00,WeatherDisplay:10.37,2013-02-08 04:42:00,
2013-02-07 20:52:00,30.2,25.4,29.91,WSW,256,9.0,13.0,82,0.00,CLR,,0.00,WeatherDisplay:10.37,2013-02-08 04:52:00,
2013-02-07 20:57:00,30.2,25.7,29.91,WSW,251,9.0,13.0,83,0.00,CLR,,0.00,WeatherDisplay:10.37,2013-02-08 04:57:00,
2013-02-07 21:02:00,29.9,25.0,29.91,WSW,248,6.0,13.0,82,0.00,CLR,,0.00,WeatherDisplay:10.37,2013-02-08 05:02:00,
2013-02-07 21:07:00,29.8,25.0,29.88,WSW,247,5.0,13.0,82,0.00,CLR,,0.00,WeatherDisplay:10.37,2013-02-08 05:07:00,
2013-02-07 21:12:00,29.7,24.5,29.88,WSW,251,6.0,10.0,81,0.00,CLR,,0.00,WeatherDisplay:10.37,2013-02-08 05:12:00,
2013-02-07 21:17:00,29.5,24.1,29.88,WSW,245,6.0,10.0,80,0.00,CLR,,0.00,WeatherDisplay:10.37,2013-02-08 05:17:00,
2013-02-07 21:22:00,29.5,23.2,29.88,WSW,242,7.0,11.0,77,0.00,CLR,,0.00,WeatherDisplay:10.37,2013-02-08 05:22:00,
2013-02-07 21:27:00,29.7,21.7,29.88,WSW,250,5.0,13.0,72,0.00,CLR,,0.00,WeatherDisplay:10.37,2013-02-08 05:27:00,
2013-02-07 21:32:00,29.7,19.7,29.88,WSW,245,6.0,13.0,66,0.00,CLR,,0.00,WeatherDisplay:10.37,2013-02-08 05:32:00,
2013-02-07 21:37:00,29.7,18.2,29.88,WSW,240,7.0,12.0,62,0.00,CLR,,0.00,WeatherDisplay:10.37,2013-02-08 05:37:00,
2013-02-07 21:42:00,29.8,17.2,29.88,WSW,250,3.0,9.0,59,0.00,CLR,,0.00,WeatherDisplay:10.37,2013-02-08 05:42:00,
2013-02-07 21:47:00,29.8,16.4,29.88,WSW,258,5.0,11.0,57,0.00,CLR,,0.00,WeatherDisplay:10.37,2013-02-08 05:47:00,
2013-02-07 21:52:00,29.7,16.3,29.88,WSW,254,6.0,15.0,57,0.00,CLR,,0.00,WeatherDisplay:10.37,2013-02-08 05:52:00,
2013-02-07 21:57:00,29.7,16.7,29.88,West,261,8.0,15.0,58,0.00,CLR,,0.00,WeatherDisplay:10.37,2013-02-08 05:57:00,
2013-02-07 22:02:00,29.5,19.2,29.88,West,260,9.0,17.0,65,0.00,CLR,,0.00,WeatherDisplay:10.37,2013-02-08 06:02:00,
2013-02-07 22:07:00,29.1,21.2,29.88,WSW,251,6.0,17.0,72,0.00,CLR,,0.00,WeatherDisplay:10.37,2013-02-08 06:07:00,
2013-02-07 22:12:00,28.8,22.1,29.88,WSW,251,7.0,14.0,76,0.00,CLR,,0.00,WeatherDisplay:10.37,2013-02-08 06:12:00,
2013-02-07 22:17:00,28.6,22.6,29.88,West,259,8.0,14.0,78,0.00,CLR,,0.00,WeatherDisplay:10.37,2013-02-08 06:17:00,
2013-02-07 22:22:00,28.4,22.7,29.88,WSW,253,6.0,17.0,79,0.00,CLR,,0.00,WeatherDisplay:10.37,2013-02-08 06:22:00,
2013-02-07 22:32:00,28.6,23.8,29.88,SW,222,5.0,14.0,82,0.00,CLR,,0.00,WeatherDisplay:10.37,2013-02-08 06:32:00,
2013-02-07 22:37:00,28.6,24.1,29.88,SSW,213,5.0,10.0,83,0.00,CLR,,0.00,WeatherDisplay:10.37,2013-02-08 06:37:00,
2013-02-07 22:47:00,28.6,24.9,29.88,SW,220,8.0,13.0,86,0.00,CLR,,0.00,WeatherDisplay:10.37,2013-02-08 06:47:00,
2013-02-07 22:52:00,28.6,25.2,29.88,SW,228,5.0,13.0,87,0.00,CLR,,0.00,WeatherDisplay:10.37,2013-02-08 06:52:00,
2013-02-07 22:57:00,28.6,25.5,29.88,SW,223,7.0,15.0,88,0.00,CLR,,0.00,WeatherDisplay:10.37,2013-02-08 06:57:00,
2013-02-07 23:02:00,28.4,25.6,29.88,SW,225,6.0,14.0,89,0.00,CLR,,0.00,WeatherDisplay:10.37,2013-02-08 07:02:00,
2013-02-07 23:07:00,28.4,25.8,29.85,WSW,239,8.0,12.0,90,0.00,CLR,,0.00,WeatherDisplay:10.37,2013-02-08 07:07:00,
2013-02-07 23:12:00,28.0,26.0,29.85,WSW,250,10.0,13.0,92,0.00,CLR,,0.00,WeatherDisplay:10.37,2013-02-08 07:12:00,
2013-02-07 23:17:00,27.9,25.8,29.85,WSW,244,8.0,22.0,92,0.00,CLR,,0.00,WeatherDisplay:10.37,2013-02-08 07:17:00,
2013-02-07 23:22:00,27.7,25.9,29.85,WSW,246,13.0,20.0,93,0.00,CLR,,0.00,WeatherDisplay:10.37,2013-02-08 07:22:00,
2013-02-07 23:32:00,27.7,26.2,29.85,SW,221,6.0,13.0,94,0.00,CLR,,0.00,WeatherDisplay:10.37,2013-02-08 07:32:00,
2013-02-07 23:37:00,27.5,25.7,29.85,SW,228,7.0,11.0,93,0.00,CLR,,0.00,WeatherDisplay:10.37,2013-02-08 07:37:00,
2013-02-07 23:42:00,27.5,25.7,29.85,SW,230,6.0,12.0,93,0.00,CLR,,0.00,WeatherDisplay:10.37,2013-02-08 07:42:00,
2013-02-07 23:47:00,27.7,25.9,29.85,WSW,237,6.0,10.0,93,0.00,CLR,,0.00,WeatherDisplay:10.37,2013-02-08 07:47:00,
2013-02-07 23:57:00,27.5,25.5,29.85,SW,220,6.0,13.0,92,0.00,CLR,,0.00,WeatherDisplay:10.37,2013-02-08 07:57:00,